Weather History for Dublin, Ireland

Change the Weather History Date:

Thursday, September 19, 2013

  Actual Average Record
Temperature  
Mean Temperature 54 °F -  
Max Temperature 62 °F 59 °F 68 °F (1998)
Min Temperature 46 °F 47 °F 37 °F (2000)
Degree Days  
Heating Degree Days 11    
Growing Degree Days 4 (Base 50)    
Moisture  
Dew Point 47 °F    
Average Humidity 75    
Maximum Humidity 94    
Minimum Humidity 50    
Precipitation  
Precipitation 0.08 in 0.09 in - ()
Sea Level Pressure  
Sea Level Pressure 29.74 in    
Wind  
Wind Speed 13 mph ()    
Max Wind Speed 29 mph    
Max Gust Speed 39 mph    
Visibility 6.9 miles    
Events Rain    
Averages and records for this station are not official NWS values.
T = Trace of Precipitation, MM = Missing Value Source: Averaged Metar Reports

Daily Weather History Graph

Daily Weather History Graph

Search for Another Location

Airport:

Trip Planner

Search our weather history database for the weather conditions in past years. The results will help you decide how hot, cold, wet, or windy it might be!

Date:

Astronomy

Sep. 19, 2013 Rise Set
Actual Time 7:05 AM IST 7:30 PM IST
Civil Twilight 6:30 AM IST 8:05 PM IST
Nautical Twilight 5:49 AM IST 8:47 PM IST
Astronomical Twilight 5:04 AM IST 9:31 PM IST
Moon 7:11 PM IST (9/19) 7:05 AM IST (9/19)
Length of Visible Light 13h 34m
Length of Day
12h 25m
Full, 100% of the Moon is Illuminated
Sep 19
Full
Sep 19
Full
Sep 27
Last Quarter
Oct 5
New
Oct 12
First Quarter

Hourly Weather History & Observations

Time (IST) Temp. Dew Point Humidity Pressure Visibility Wind Dir Wind Speed Gust Speed Precip Events Conditions
12:00 AM 48.2 °F 42.8 °F 82% 29.86 in 6.2 mi West 8.1 mph - N/A   Mostly Cloudy
12:30 AM 48.2 °F 42.8 °F 82% 29.86 in 6.2 mi WSW 5.8 mph - N/A   Mostly Cloudy
1:00 AM 48 °F 43 °F 76% 29.86 in 19 mi SSW 6.7 mph - -   Scattered Clouds
1:00 AM 48.2 °F 42.8 °F 82% 29.86 in 6.2 mi SW 8.1 mph - N/A   Mostly Cloudy
1:30 AM 48.2 °F 42.8 °F 82% 29.83 in 6.2 mi SSW 6.9 mph - N/A   Mostly Cloudy
2:00 AM 48.2 °F 42.8 °F 82% 29.86 in - SW 6.9 mph - N/A   Clear
2:30 AM 48.2 °F 42.8 °F 82% 29.83 in - SSW 6.9 mph - N/A   Clear
3:00 AM 48.2 °F 42.8 °F 82% 29.80 in - South 5.8 mph - N/A   Clear
3:30 AM 48.2 °F 42.8 °F 82% 29.80 in - SSW 8.1 mph - N/A   Clear
4:00 AM 48.2 °F 42.8 °F 82% 29.77 in - South 5.8 mph - N/A   Clear
4:30 AM 48.2 °F 44.6 °F 87% 29.74 in - South 9.2 mph - N/A   Clear
5:00 AM 48.2 °F 44.6 °F 87% 29.71 in - South 6.9 mph - N/A   Clear
5:30 AM 50.0 °F 44.6 °F 82% 29.71 in 6.2 mi South 4.6 mph - N/A Rain Light Rain
6:00 AM 50.0 °F 44.6 °F 82% 29.65 in 6.2 mi SSE 6.9 mph - N/A   Mostly Cloudy
6:30 AM 50.0 °F 46.4 °F 87% 29.65 in 6.2 mi SSW 9.2 mph - N/A Rain Light Rain
7:00 AM 51 °F 49 °F 91% 29.62 in 2 mi South 6.7 mph - - Rain Light Rain
7:00 AM 51.8 °F 48.2 °F 88% 29.62 in 2.5 mi South 8.1 mph - N/A Rain Light Rain
7:30 AM 51.8 °F 50.0 °F 94% 29.59 in 6.2 mi SSW 11.5 mph - N/A Rain Light Rain
8:00 AM 55.4 °F 51.8 °F 88% 29.56 in 6.2 mi SW 21.9 mph - N/A   Mostly Cloudy
9:00 AM 55.4 °F 53.6 °F 94% 29.59 in 6.2 mi WSW 24.2 mph - N/A   Light Drizzle
9:30 AM 57.2 °F 53.6 °F 88% 29.59 in 6.2 mi WSW 24.2 mph - N/A   Scattered Clouds
10:00 AM 59.0 °F 55.4 °F 88% 29.59 in 6.2 mi West 24.2 mph - N/A   Scattered Clouds
10:30 AM 59.0 °F 53.6 °F 82% 29.62 in 6.2 mi West 24.2 mph - N/A Rain Light Rain Showers
11:00 AM 59.0 °F 51.8 °F 77% 29.62 in 6.2 mi West 21.9 mph - N/A   Scattered Clouds
11:30 AM 59.0 °F 53.6 °F 82% 29.65 in 6.2 mi West 26.5 mph - N/A   Partly Cloudy
12:00 PM 59.0 °F 48.2 °F 67% 29.65 in 6.2 mi West 25.3 mph - N/A   Scattered Clouds
12:30 PM 60.8 °F 50.0 °F 68% 29.68 in 6.2 mi West 28.8 mph - N/A   Scattered Clouds
1:00 PM 61 °F 47 °F 50% 29.68 in 19 mi West 29.1 mph - -   Partly Cloudy
1:00 PM 60.8 °F 50.0 °F 68% 29.68 in 6.2 mi West 27.6 mph - N/A   Scattered Clouds
1:30 PM 60.8 °F 48.2 °F 63% 29.68 in 6.2 mi West 26.5 mph 38.0 mph N/A   Scattered Clouds
2:00 PM 60.8 °F 48.2 °F 63% 29.68 in 6.2 mi West 28.8 mph - N/A   Scattered Clouds
2:30 PM 60.8 °F 48.2 °F 63% 29.71 in 6.2 mi West 26.5 mph - N/A   Scattered Clouds
3:00 PM 62.6 °F 48.2 °F 59% 29.71 in 6.2 mi West 25.3 mph - N/A   Scattered Clouds
3:30 PM 62.6 °F 50.0 °F 63% 29.71 in 6.2 mi West 24.2 mph - N/A   Scattered Clouds
4:00 PM 62.6 °F 50.0 °F 63% 29.71 in 6.2 mi West 28.8 mph - N/A   Scattered Clouds
4:30 PM 60.8 °F 48.2 °F 63% 29.74 in 6.2 mi West 25.3 mph - N/A   Scattered Clouds
5:00 PM 60.8 °F 48.2 °F 63% 29.74 in 6.2 mi West 24.2 mph 35.7 mph N/A   Scattered Clouds
5:30 PM 59.0 °F 46.4 °F 63% 29.77 in 6.2 mi West 27.6 mph 39.1 mph N/A   Scattered Clouds
6:00 PM 57.2 °F 46.4 °F 67% 29.77 in 6.2 mi West 28.8 mph - N/A   Scattered Clouds
6:30 PM 55.4 °F 44.6 °F 67% 29.80 in 6.2 mi West 23.0 mph - N/A   Scattered Clouds
7:00 PM 56 °F 46 °F 60% 29.82 in 19 mi West 20.1 mph - -   Partly Cloudy
7:00 PM 57.2 °F 44.6 °F 63% 29.80 in 6.2 mi West 19.6 mph 31.1 mph N/A   Scattered Clouds
7:30 PM 55.4 °F 46.4 °F 72% 29.80 in 6.2 mi West 21.9 mph - N/A   Mostly Cloudy
8:00 PM 53.6 °F 44.6 °F 72% 29.83 in 6.2 mi West 17.3 mph - N/A   Mostly Cloudy
8:30 PM 53.6 °F 44.6 °F 72% 29.86 in 6.2 mi West 16.1 mph - N/A   Mostly Cloudy
9:00 PM 53.6 °F 44.6 °F 72% 29.86 in 6.2 mi West 18.4 mph - N/A   Mostly Cloudy
9:30 PM 53.6 °F 44.6 °F 72% 29.89 in 6.2 mi West 17.3 mph - N/A   Mostly Cloudy
10:00 PM 53.6 °F 44.6 °F 72% 29.89 in 6.2 mi West 17.3 mph - N/A   Mostly Cloudy
10:30 PM 53.6 °F 44.6 °F 72% 29.89 in 6.2 mi West 17.3 mph - N/A   Mostly Cloudy
11:00 PM 51.8 °F 44.6 °F 76% 29.89 in 6.2 mi West 21.9 mph - N/A   Partly Cloudy
11:30 PM 51.8 °F 44.6 °F 76% 29.89 in 6.2 mi West 20.7 mph - N/A   Scattered Clouds